Location: Wolfsburg
(52.4330°N, 10.8000°E)
Time: 01:31:05
(UTC+01:00)

ISS - Visible Passes

Search period start: 13 December 2025 00:00
Search period end: 23 December 2025 00:00
Orbit: 416 x 420 km, 51.6° (Epoch: 12 December)

Date Brightness Start Highest point End Pass type
(mag) Time Alt. Az. Time Alt. Az. Time Alt. Az.
13 Dec -1.0 07:14:59 10° SSW 07:17:36 21° SSE 07:20:15 10° E visible
14 Dec -0.7 06:27:48 10° S 06:29:49 15° SE 06:31:52 10° ESE visible
15 Dec -0.4 05:41:32 10° SE 05:42:03 10° SE 05:42:35 10° SE visible
15 Dec -2.2 07:14:57 10° SW 07:18:07 38° SSE 07:21:17 10° E visible
16 Dec -1.8 06:27:15 10° SSW 06:30:12 28° SSE 06:33:09 10° E visible
17 Dec -1.5 05:41:15 18° S 05:42:17 21° SE 05:44:53 10° E visible
17 Dec -3.2 07:15:18 10° WSW 07:18:38 60° SSE 07:21:59 10° E visible
18 Dec -0.5 04:55:34 13° ESE 04:55:34 13° ESE 04:56:22 10° ESE visible
18 Dec -2.9 06:28:32 20° SW 06:30:35 48° SSE 06:33:52 10° E visible
19 Dec -2.5 05:42:40 36° SSE 05:42:40 36° SSE 05:45:43 10° E visible
19 Dec -3.6 07:15:45 10° W 07:19:08 77° S 07:22:31 10° E visible
20 Dec -0.6 04:56:39 15° E 04:56:39 15° E 04:57:27 10° E visible
20 Dec -3.6 06:29:35 31° WSW 06:31:00 70° S 06:34:22 10° E visible
21 Dec -2.8 05:43:28 48° ESE 05:43:28 48° ESE 05:46:11 10° E visible
21 Dec -3.7 07:16:23 12° W 07:19:32 78° S 07:22:55 10° E visible
22 Dec -0.6 04:57:16 15° E 04:57:16 15° E 04:57:58 10° E visible
22 Dec -3.8 06:30:11 38° W 06:31:20 80° S 06:34:43 10° E visible
